Location: Boiro
(42.6475°N, 8.8834°W)
Time: 02:22:42
(UTC+01:00)

Vanguard 2 - Pass Details

Date: 02 December 2021
Orbit: 553 x 2936 km, 32.9° (Epoch: 20 January)

Event Time Altitude Azimuth Distance (km) Brightness Sun altitude
Rises 18:36:30 0° 262° (W) 3,691 12.8 -6.4°
Reaches altitude 10° 18:38:53 10° 254° (WSW) 2,985 12.3 -6.8°
Maximum altitude 18:45:48 39° 188° (S) 2,150 10.1 -7.9°
Drops below altitude 10° 18:56:46 10° 126° (SE) 4,715 11.2 -9.8°
Sets 19:01:36 0° 120° (ESE) 6,079 11.7 -10.6°
